View Data : List Evapotranspiration (ETo ) Reports


 
Search Evapotranspiration Reports
Station Fields:
Location:
Date Range:
Start Date:   End Date:
Searched: Report date on 4/22/2019.
Showing 1 - 50 of 53 Records. <Back  Page   Next>
DateTimeStation NumberStation NameGaugeReadingRefill LevelEvap AmtView
4/22/2019  5:00 AM  IN-OW-9  Spencer 7.0 S 2.05  0.13   
4/22/2019  5:00 AM  NY-CQ-22  Fredonia 0.8 WNW 0.15  0.05   
4/22/2019  5:12 AM  WI-MC-4  Two Rivers 1.4 N 0.42  0.07   
4/22/2019  5:15 AM  WA-SJ-28  Lopez Island 3.9 NNE 1.69  0.04   
4/22/2019  5:30 AM  IN-TN-1  Atlanta 4.4 W 0.70  0.10   
4/22/2019  6:00 AM  CA-SJ-5  Lodi 1.0 NNW 2.15  0.15   
4/22/2019  6:00 AM  TN-MA-3  Jasper 1.7 N 4.60  0.10   
4/22/2019  6:28 AM  TX-KN-118  Boerne 1.6 E 2.51  0.13   
4/22/2019  6:30 AM  IN-PT-133  Valparaiso 2.2 WNW 1.59  0.19   
4/22/2019  6:30 AM  OH-DR-1  Bradford 2.3 NW 0.33  0.02   
4/22/2019  7:00 AM  AZ-PN-50  Saddlebrooke 1.5 SW 4.88  0.21   
4/22/2019  7:00 AM  CA-HM-5  Mckinleyville 7.3 ESE 0.58  0.06   
4/22/2019  7:00 AM  CA-SD-12  Poway 3.2NE 4.84  0.07   
4/22/2019  7:00 AM  CA-SD-132  Descanso 3.7N 6.32  0.07   
4/22/2019  7:00 AM  FL-MR-66  The Villages 3.7 NNW 2.70  0.20   
4/22/2019  7:00 AM  GA-FY-28  Fayetteville 2.1 NNE 2.79  0.03   
4/22/2019  7:00 AM  IL-GY-1  Carbon Hill 3.1 N 9.52 0.02 0.00   
4/22/2019  7:00 AM  IN-HR-5  Milltown 5.7 SSE 1.67  0.12   
4/22/2019  7:00 AM  IN-MR-13  Speedway 6.2 SSW 0.08  0.08   
4/22/2019  7:00 AM  IA-LN-7  Central City 6.7 W 1.20  0.20   
4/22/2019  7:00 AM  IA-TY-2  New Market 4.7 N 1.19  0.18   
4/22/2019  7:00 AM  KY-FR-1  Frankfort 3.3 NE 2.31  0.09   
4/22/2019  7:00 AM  MD-HR-23  Norrisville 0.6 WSW 1.78  0.09   
4/22/2019  7:00 AM  MA-WR-28  Berlin 1.3 WSW 8.66 0.31 0.00   
4/22/2019  7:00 AM  NV-WH-2  Reno 1.4 NNE 1.60  0.07   
4/22/2019  7:00 AM  NY-WY-10  Wyoming COOP 0.01  0.00   
4/22/2019  7:00 AM  OH-PB-1  Eaton 1.0 N 0.90  0.04   
4/22/2019  7:00 AM  OK-PY-9  Glencoe 3.0 W 2.67  0.20   
4/22/2019  7:00 AM  SC-AK-75  Graniteville 1.2 NE 2.21  0.09   
4/22/2019  7:00 AM  TN-WN-10  Green Hill 0.3 N 1.64  0.11   
4/22/2019  7:00 AM  TX-ER-4  Stephenville 2.6 NNW 2.40  0.20   
4/22/2019  7:00 AM  TX-TV-9  West Lake Hills 2.4 NNW 2.87  0.28   
4/22/2019  7:00 AM  UT-GR-9  Castle Valley 0.6 W 1.03  0.18   
4/22/2019  7:00 AM  UT-ML-1  Oak City 0.3 SSE 2.60  0.10   
4/22/2019  7:00 AM  WA-TH-28  Olympia 7.0 NNE 0.60  0.02   
4/22/2019  7:00 AM  WA-WC-52  Bellingham 2.3 S 0.50  0.07   
4/22/2019  7:10 AM  VA-HV-8  Montpelier 4.8 E 5.24 0.01 0.00   
4/22/2019  7:15 AM  MI-AN-1  Wayland 2.0 W 0.46  0.06   
4/22/2019  7:15 AM  NY-WC-6  South Salem 2.1 NW 0.68  0.01   
4/22/2019  7:15 AM  WV-MS-1  Point Pleasant 5.8 E 1.99  0.04   
4/22/2019  7:22 AM  CA-SK-20  Grenada 0.8 SW 0.52  0.12   
4/22/2019  7:39 AM  NJ-MN-64  Howell Twp 3.7 SSW 1.44  0.09   
4/22/2019  8:00 AM  KS-SG-114  Haysville 3.8 SSE 0.15  0.15   
4/22/2019  8:00 AM  NM-SF-70  Santa Fe 10.5 S 3.59  0.22   
4/22/2019  8:00 AM  PA-CH-41  Wickerton 0.4 NW 0.50  0.10   
4/22/2019  8:00 AM  TX-KN-106  Boerne 1.6 ESE 0.77  0.14   
4/22/2019  8:00 AM  TX-TY-5  Merkel 5.8 SW 2.74  0.18   
4/22/2019  8:00 AM  VA-BD-9  Bedford 3.2 W 0.88  0.18   
4/22/2019  8:00 AM  WV-CB-17  Huntington 1.7 ESE 7.46  0.04   
4/22/2019  8:00 AM  WI-MW-18  West Allis 0.7 SSE 0.18  0.15